Time,TemperatureF,DewpointF,PressureIn,WindDirection,WindDirectionDegrees,WindSpeedMPH,WindSpeedGustMPH,Humidity,HourlyPrecipIn,Conditions,Clouds,dailyrainin,SoftwareType,DateUTC
2013-01-29 00:07:00,46.1,40.0,30.18,NE,42,6.0,9.0,78,0.00,,,0.00,weatherlink.com 1.10,2013-01-29 05:07:00,
2013-01-29 00:22:00,46.2,40.0,30.18,North,10,7.0,10.0,78,0.00,,,0.00,weatherlink.com 1.10,2013-01-29 05:22:00,
2013-01-29 00:37:00,46.5,40.0,30.17,NE,46,4.0,10.0,78,0.00,,,0.00,weatherlink.com 1.10,2013-01-29 05:37:00,
2013-01-29 00:52:00,46.2,40.0,30.17,East,91,1.0,3.0,79,0.00,,,0.00,weatherlink.com 1.10,2013-01-29 05:52:00,
2013-01-29 01:08:00,45.5,40.0,30.17,NNW,327,1.0,2.0,80,0.00,,,0.00,weatherlink.com 1.10,2013-01-29 06:08:00,
2013-01-29 01:22:00,45.4,40.0,30.16,SSW,198,0.0,2.0,80,0.00,,,0.00,weatherlink.com 1.10,2013-01-29 06:22:00,
2013-01-29 01:37:00,45.2,40.0,30.16,SW,216,2.0,4.0,81,0.00,,,0.00,weatherlink.com 1.10,2013-01-29 06:37:00,
2013-01-29 01:52:00,46.0,41.0,30.16,NE,50,1.0,4.0,81,0.00,,,0.00,weatherlink.com 1.10,2013-01-29 06:52:00,
2013-01-29 02:07:00,46.0,40.0,30.15,NNE,19,0.0,3.0,80,0.00,,,0.00,weatherlink.com 1.10,2013-01-29 07:07:00,
2013-01-29 02:22:00,45.9,41.0,30.15,NNE,33,2.0,4.0,83,0.00,,,0.00,weatherlink.com 1.10,2013-01-29 07:22:00,
2013-01-29 02:37:00,46.6,42.0,30.15,NNE,22,2.0,9.0,83,0.00,,,0.00,weatherlink.com 1.10,2013-01-29 07:37:00,
2013-01-29 02:53:00,46.5,42.0,30.15,South,171,0.0,4.0,83,0.00,,,0.00,weatherlink.com 1.10,2013-01-29 07:53:00,
2013-01-29 03:07:00,46.7,42.0,30.14,WNW,300,0.0,5.0,83,0.00,,,0.00,weatherlink.com 1.10,2013-01-29 08:07:00,
2013-01-29 03:22:00,47.0,42.0,30.14,WSW,254,0.0,10.0,83,0.00,,,0.00,weatherlink.com 1.10,2013-01-29 08:22:00,
2013-01-29 03:37:00,46.6,42.0,30.14,NW,305,0.0,7.0,84,0.00,,,0.00,weatherlink.com 1.10,2013-01-29 08:37:00,
2013-01-29 03:52:00,47.1,41.0,30.14,ENE,69,0.0,5.0,80,0.00,,,0.00,weatherlink.com 1.10,2013-01-29 08:52:00,
2013-01-29 04:08:00,46.1,41.0,30.13,WNW,285,2.0,5.0,83,0.00,,,0.00,weatherlink.com 1.10,2013-01-29 09:08:00,
2013-01-29 04:22:00,46.5,42.0,30.13,NNW,329,2.0,5.0,85,0.00,,,0.00,weatherlink.com 1.10,2013-01-29 09:22:00,
2013-01-29 04:37:00,47.4,43.0,30.14,South,177,2.0,5.0,85,0.00,,,0.00,weatherlink.com 1.10,2013-01-29 09:37:00,
2013-01-29 04:53:00,46.7,42.0,30.14,NW,304,0.0,7.0,84,0.00,,,0.00,weatherlink.com 1.10,2013-01-29 09:53:00,
2013-01-29 05:08:00,46.1,42.0,30.13,SSE,167,0.0,9.0,84,0.00,,,0.00,weatherlink.com 1.10,2013-01-29 10:08:00,
2013-01-29 05:23:00,45.9,41.0,30.13,NW,313,2.0,4.0,83,0.00,,,0.00,weatherlink.com 1.10,2013-01-29 10:23:00,
2013-01-29 05:38:00,46.3,40.0,30.13,WNW,296,2.0,5.0,80,0.00,,,0.00,weatherlink.com 1.10,2013-01-29 10:38:00,
2013-01-29 05:53:00,46.3,41.0,30.13,ESE,109,0.0,7.0,81,0.00,,,0.00,weatherlink.com 1.10,2013-01-29 10:53:00,
2013-01-29 06:08:00,46.0,41.0,30.13,NNE,27,2.0,3.0,82,0.00,,,0.00,weatherlink.com 1.10,2013-01-29 11:08:00,
2013-01-29 06:23:00,47.2,42.0,30.13,West,267,3.0,5.0,83,0.00,,,0.00,weatherlink.com 1.10,2013-01-29 11:23:00,
2013-01-29 06:38:00,47.9,43.0,30.13,North,9,0.0,4.0,82,0.00,,,0.00,weatherlink.com 1.10,2013-01-29 11:38:00,
2013-01-29 06:53:00,47.7,43.0,30.13,WNW,300,2.0,2.0,82,0.00,,,0.00,weatherlink.com 1.10,2013-01-29 11:53:00,
2013-01-29 07:08:00,48.7,43.0,30.13,NW,305,0.0,4.0,82,0.00,,,0.00,weatherlink.com 1.10,2013-01-29 12:08:00,
2013-01-29 07:23:00,47.5,43.0,30.14,NW,310,0.0,2.0,84,0.00,,,0.00,weatherlink.com 1.10,2013-01-29 12:23:00,
2013-01-29 07:38:00,48.4,43.0,30.14,NNE,28,1.0,4.0,82,0.00,,,0.00,weatherlink.com 1.10,2013-01-29 12:38:00,
2013-01-29 07:53:00,48.8,43.0,30.14,NE,53,1.0,3.0,81,0.00,,,0.00,weatherlink.com 1.10,2013-01-29 12:53:00,
2013-01-29 08:08:00,47.2,43.0,30.13,NE,54,1.0,2.0,85,0.00,,,0.00,weatherlink.com 1.10,2013-01-29 13:08:00,
2013-01-29 08:23:00,48.3,43.0,30.13,ENE,67,2.0,7.0,83,0.00,,,0.00,weatherlink.com 1.10,2013-01-29 13:23:00,
2013-01-29 08:38:00,49.8,44.0,30.13,NE,54,3.0,6.0,81,0.00,,,0.00,weatherlink.com 1.10,2013-01-29 13:38:00,
2013-01-29 08:53:00,51.5,45.0,30.13,ENE,78,3.0,6.0,78,0.00,,,0.00,weatherlink.com 1.10,2013-01-29 13:53:00,
2013-01-29 09:08:00,53.2,45.0,30.13,ENE,59,2.0,5.0,74,0.00,,,0.00,weatherlink.com 1.10,2013-01-29 14:08:00,
2013-01-29 09:23:00,53.5,45.0,30.13,ENE,70,2.0,5.0,74,0.00,,,0.00,weatherlink.com 1.10,2013-01-29 14:23:00,
2013-01-29 09:38:00,53.6,45.0,30.13,NE,54,3.0,4.0,72,0.00,,,0.00,weatherlink.com 1.10,2013-01-29 14:38:00,
2013-01-29 09:53:00,54.9,45.0,30.13,ENE,64,2.0,5.0,70,0.00,,,0.00,weatherlink.com 1.10,2013-01-29 14:53:00,
2013-01-29 10:08:00,55.5,45.0,30.13,East,92,2.0,5.0,68,0.00,,,0.00,weatherlink.com 1.10,2013-01-29 15:08:00,
2013-01-29 10:23:00,55.7,45.0,30.13,East,88,2.0,3.0,68,0.00,,,0.00,weatherlink.com 1.10,2013-01-29 15:23:00,
2013-01-29 10:38:00,56.3,45.0,30.12,NNE,32,3.0,4.0,67,0.00,,,0.00,weatherlink.com 1.10,2013-01-29 15:38:00,
2013-01-29 10:53:00,56.6,45.0,30.11,NE,50,3.0,4.0,66,0.00,,,0.00,weatherlink.com 1.10,2013-01-29 15:53:00,
2013-01-29 11:08:00,57.1,45.0,30.11,ENE,61,2.0,5.0,64,0.00,,,0.00,weatherlink.com 1.10,2013-01-29 16:08:00,
2013-01-29 11:24:00,57.0,45.0,30.09,NNE,19,4.0,8.0,65,0.00,,,0.00,weatherlink.com 1.10,2013-01-29 16:24:00,
2013-01-29 11:38:00,55.5,44.0,30.09,ENE,59,3.0,8.0,66,0.00,,,0.00,weatherlink.com 1.10,2013-01-29 16:38:00,
2013-01-29 11:54:00,55.8,44.0,30.09,NE,54,3.0,8.0,66,0.00,,,0.00,weatherlink.com 1.10,2013-01-29 16:54:00,
2013-01-29 12:08:00,56.8,44.0,30.08,NE,41,2.0,7.0,63,0.00,,,0.00,weatherlink.com 1.10,2013-01-29 17:08:00,
2013-01-29 12:23:00,58.1,44.0,30.07,NE,53,2.0,5.0,60,0.00,,,0.00,weatherlink.com 1.10,2013-01-29 17:23:00,
2013-01-29 12:38:00,58.2,44.0,30.07,NE,48,3.0,6.0,59,0.00,,,0.00,weatherlink.com 1.10,2013-01-29 17:38:00,
2013-01-29 12:53:00,58.7,43.0,30.06,ENE,64,1.0,6.0,56,0.00,,,0.00,weatherlink.com 1.10,2013-01-29 17:53:00,
2013-01-29 13:09:00,58.7,41.0,30.05,ENE,60,1.0,8.0,52,0.00,,,0.00,weatherlink.com 1.10,2013-01-29 18:09:00,
2013-01-29 13:24:00,58.7,41.0,30.04,ENE,76,3.0,7.0,53,0.00,,,0.00,weatherlink.com 1.10,2013-01-29 18:24:00,
2013-01-29 13:39:00,58.7,40.0,30.03,NE,53,3.0,6.0,51,0.00,,,0.00,weatherlink.com 1.10,2013-01-29 18:39:00,
2013-01-29 13:54:00,58.9,42.0,30.03,ENE,62,4.0,6.0,53,0.00,,,0.00,weatherlink.com 1.10,2013-01-29 18:54:00,
2013-01-29 14:09:00,58.4,43.0,30.02,East,80,3.0,7.0,56,0.00,,,0.00,weatherlink.com 1.10,2013-01-29 19:09:00,
2013-01-29 14:24:00,57.8,42.0,30.02,NE,35,1.0,5.0,57,0.00,,,0.00,weatherlink.com 1.10,2013-01-29 19:24:00,
2013-01-29 14:39:00,58.1,43.0,30.02,NE,49,3.0,7.0,57,0.00,,,0.00,weatherlink.com 1.10,2013-01-29 19:39:00,
2013-01-29 14:54:00,57.2,43.0,30.02,NE,39,1.0,5.0,60,0.00,,,0.00,weatherlink.com 1.10,2013-01-29 19:54:00,
2013-01-29 15:09:00,57.3,44.0,30.01,NE,48,3.0,5.0,61,0.00,,,0.00,weatherlink.com 1.10,2013-01-29 20:09:00,
2013-01-29 15:24:00,57.4,44.0,30.00,NE,40,2.0,5.0,62,0.00,,,0.00,weatherlink.com 1.10,2013-01-29 20:24:00,
2013-01-29 15:39:00,56.2,44.0,30.01,NE,55,1.0,5.0,65,0.00,,,0.00,weatherlink.com 1.10,2013-01-29 20:39:00,
2013-01-29 15:54:00,56.0,45.0,30.00,East,88,7.0,7.0,67,0.00,,,0.00,weatherlink.com 1.10,2013-01-29 20:54:00,
2013-01-29 16:09:00,54.5,45.0,30.00,NE,47,3.0,6.0,71,0.00,,,0.00,weatherlink.com 1.10,2013-01-29 21:09:00,
2013-01-29 16:24:00,53.3,46.0,30.00,NE,55,3.0,7.0,76,0.00,,,0.00,weatherlink.com 1.10,2013-01-29 21:24:00,
2013-01-29 16:39:00,52.7,47.0,29.99,NE,39,3.0,7.0,82,0.00,,,0.00,weatherlink.com 1.10,2013-01-29 21:39:00,
2013-01-29 16:54:00,52.0,48.0,29.99,ENE,66,2.0,5.0,86,0.00,,,0.00,weatherlink.com 1.10,2013-01-29 21:54:00,
2013-01-29 17:09:00,51.4,48.0,29.99,ENE,74,2.0,6.0,89,0.00,,,0.00,weatherlink.com 1.10,2013-01-29 22:09:00,
2013-01-29 17:24:00,50.9,48.0,29.98,ENE,61,3.0,6.0,91,0.00,,,0.00,weatherlink.com 1.10,2013-01-29 22:24:00,
2013-01-29 17:39:00,50.4,48.0,29.98,ENE,65,3.0,5.0,92,0.00,,,0.00,weatherlink.com 1.10,2013-01-29 22:39:00,
2013-01-29 17:54:00,50.1,48.0,29.97,ENE,69,3.0,5.0,93,0.00,,,0.00,weatherlink.com 1.10,2013-01-29 22:54:00,
2013-01-29 18:09:00,49.6,48.0,29.96,ENE,60,3.0,5.0,94,0.00,,,0.00,weatherlink.com 1.10,2013-01-29 23:09:00,
2013-01-29 18:24:00,49.1,48.0,29.96,ENE,61,3.0,9.0,95,0.00,,,0.00,weatherlink.com 1.10,2013-01-29 23:24:00,
2013-01-29 18:39:00,49.3,48.0,29.95,East,89,7.0,8.0,96,0.00,,,0.00,weatherlink.com 1.10,2013-01-29 23:39:00,
2013-01-29 18:54:00,49.3,48.0,29.95,ENE,69,7.0,9.0,96,0.00,,,0.00,weatherlink.com 1.10,2013-01-29 23:54:00,
2013-01-29 19:09:00,49.2,48.0,29.95,ENE,65,5.0,10.0,96,0.00,,,0.00,weatherlink.com 1.10,2013-01-30 00:09:00,
2013-01-29 19:24:00,49.2,48.0,29.94,NE,49,5.0,11.0,97,0.00,,,0.00,weatherlink.com 1.10,2013-01-30 00:24:00,
2013-01-29 19:39:00,49.2,48.0,29.94,ENE,64,3.0,12.0,97,0.00,,,0.00,weatherlink.com 1.10,2013-01-30 00:39:00,
2013-01-29 19:54:00,49.2,48.0,29.94,NE,53,6.0,14.0,97,0.00,,,0.00,weatherlink.com 1.10,2013-01-30 00:54:00,
2013-01-29 20:10:00,49.3,49.0,29.95,ENE,69,5.0,11.0,97,0.00,,,0.00,weatherlink.com 1.10,2013-01-30 01:10:00,
2013-01-29 20:25:00,49.2,49.0,29.95,NE,53,4.0,10.0,98,0.00,,,0.00,weatherlink.com 1.10,2013-01-30 01:25:00,
2013-01-29 20:39:00,49.3,49.0,29.95,ENE,77,5.0,17.0,98,0.00,,,0.00,weatherlink.com 1.10,2013-01-30 01:39:00,
2013-01-29 20:54:00,49.4,49.0,29.96,North,355,4.0,12.0,98,0.00,,,0.00,weatherlink.com 1.10,2013-01-30 01:54:00,
2013-01-29 21:09:00,49.4,49.0,29.96,ENE,75,5.0,9.0,98,0.00,,,0.00,weatherlink.com 1.10,2013-01-30 02:09:00,
2013-01-29 21:24:00,49.5,49.0,29.94,ENE,63,7.0,14.0,98,0.00,,,0.00,weatherlink.com 1.10,2013-01-30 02:24:00,
2013-01-29 21:39:00,49.5,49.0,29.94,ENE,59,5.0,11.0,98,0.00,,,0.00,weatherlink.com 1.10,2013-01-30 02:39:00,
2013-01-29 21:55:00,49.4,49.0,29.93,NE,53,4.0,13.0,98,0.00,,,0.00,weatherlink.com 1.10,2013-01-30 02:55:00,
2013-01-29 22:10:00,49.6,49.0,29.93,ENE,69,4.0,16.0,98,0.01,,,0.01,weatherlink.com 1.10,2013-01-30 03:10:00,
2013-01-29 22:24:00,49.4,49.0,29.93,ENE,65,8.0,12.0,98,0.02,,,0.02,weatherlink.com 1.10,2013-01-30 03:24:00,
2013-01-29 22:39:00,49.4,49.0,29.93,ENE,67,5.0,9.0,98,0.02,,,0.02,weatherlink.com 1.10,2013-01-30 03:39:00,
2013-01-29 22:54:00,49.6,49.0,29.92,ENE,69,8.0,10.0,98,0.02,,,0.02,weatherlink.com 1.10,2013-01-30 03:54:00,
2013-01-29 23:09:00,49.7,49.0,29.91,NE,48,6.0,9.0,98,0.01,,,0.02,weatherlink.com 1.10,2013-01-30 04:09:00,
2013-01-29 23:24:00,49.9,49.0,29.90,ENE,64,8.0,10.0,98,0.00,,,0.02,weatherlink.com 1.10,2013-01-30 04:24:00,
2013-01-29 23:40:00,50.0,50.0,29.89,ENE,61,5.0,9.0,98,0.00,,,0.02,weatherlink.com 1.10,2013-01-30 04:40:00,
2013-01-29 23:55:00,50.0,50.0,29.88,ENE,69,7.0,12.0,98,0.00,,,0.02,weatherlink.com 1.10,2013-01-30 04:55:00,